Location: Morlupo
(42.1333°N, 12.5000°E)
Time: 16:44:05
(UTC+00:00)

NOSS 2-2 (C) - Pass Details

Date: 18 September 2020
Orbit: 468 x 1740 km, 63.3° (Epoch: 19 October)

Event Time Altitude Azimuth Distance (km) Brightness Sun altitude
Rises 18:13:50 0° 208° (SSW) 2,537 6.9 -11.9°
Reaches altitude 10° 18:15:57 10° 206° (SSW) 1,627 5.9 -12.2°
Maximum altitude 18:19:25 68° 123° (ESE) 513 2.9 -12.9°
Drops below altitude 10° 18:23:06 10° 40° (NE) 1,733 5.6 -13.5°
Sets 18:25:25 0° 38° (NE) 2,725 6.6 -13.9°
